EN

Hourly Weather Pakowo

Today, 1 March, Monday

Time Temperature Precipitation Wind Pressure Humidity
00:00 +2°C° 0 mm 2 mps 770 mmHg 92%
01:00 +2°C° 0 mm 2 mps 770 mmHg 94%
02:00 +2°C° 0 mm 2 mps 770 mmHg 94%
03:00 +2°C° 0 mm 1 mps 769 mmHg 95%
04:00 +2°C° 0 mm 1 mps 769 mmHg 96%
05:00 +2°C° 0 mm 1 mps 769 mmHg 96%
06:00 +2°C° 0 mm 1 mps 770 mmHg 96%
07:00 +1°C° 0 mm 1 mps 770 mmHg 96%
08:00 +2°C° 0 mm 2 mps 770 mmHg 91%
09:00 +4°C° 0 mm 2 mps 770 mmHg 87%
10:00 +5°C° 0 mm 2 mps 770 mmHg 83%
11:00 +6°C° 0 mm 2 mps 770 mmHg 78%
12:00 +8°C° 0 mm 2 mps 770 mmHg 73%
13:00 +9°C° 0 mm 2 mps 770 mmHg 68%
14:00 +9°C° 0 mm 2 mps 770 mmHg 68%
15:00 +9°C° 0 mm 2 mps 769 mmHg 68%
16:00 +10°C° 0 mm 2 mps 769 mmHg 68%
17:00 +8°C° 0 mm 2 mps 769 mmHg 73%
18:00 +7°C° 0 mm 2 mps 769 mmHg 79%
19:00 +6°C° 0 mm 1 mps 769 mmHg 84%
20:00 +6°C° 0 mm 1 mps 769 mmHg 86%
21:00 +5°C° 0 mm 1 mps 769 mmHg 87%
22:00 +5°C° 0 mm 1 mps 769 mmHg 88%
23:00 +5°C° 0 mm 1 mps 769 mmHg 88%

Tomorrow, 2 March, Tuesday

Time Temperature Precipitation Wind Pressure Humidity
00:00 +4°C° 0 mm 1 mps 769 mmHg 88%
01:00 +4°C° 0 mm 1 mps 769 mmHg 89%
02:00 +4°C° 0 mm 1 mps 769 mmHg 89%
03:00 +2°C° 0 mm 2 mps 769 mmHg 89%
04:00 +2°C° 0 mm 2 mps 768 mmHg 89%
05:00 +2°C° 0 mm 2 mps 768 mmHg 88%
06:00 +3°C° 0 mm 1 mps 769 mmHg 88%
07:00 +2°C° 0 mm 1 mps 769 mmHg 88%
08:00 +3°C° 0 mm 2 mps 769 mmHg 83%
09:00 +5°C° 0 mm 2 mps 769 mmHg 78%
10:00 +6°C° 0 mm 2 mps 769 mmHg 73%
11:00 +8°C° 0 mm 2 mps 769 mmHg 67%
12:00 +9°C° 0 mm 2 mps 769 mmHg 61%
13:00 +12°C° 0 mm 2 mps 769 mmHg 55%
14:00 +12°C° 0 mm 2 mps 769 mmHg 56%
15:00 +12°C° 0 mm 1 mps 768 mmHg 57%
16:00 +12°C° 0 mm 1 mps 768 mmHg 58%
17:00 +10°C° 0 mm 1 mps 768 mmHg 63%
18:00 +8°C° 0 mm 1 mps 768 mmHg 68%
19:00 +7°C° 0 mm 1 mps 768 mmHg 73%
20:00 +6°C° 0 mm 1 mps 768 mmHg 76%
21:00 +5°C° 0 mm 1 mps 768 mmHg 80%
22:00 +5°C° 0 mm 1 mps 768 mmHg 83%
23:00 +4°C° 0 mm 1 mps 768 mmHg 84%

Day after tomorrow, 3 March, Wednesday

Time Temperature Precipitation Wind Pressure Humidity
00:00 +4°C° 0 mm 1 mps 768 mmHg 85%
01:00 +4°C° 0 mm 1 mps 768 mmHg 85%
02:00 +4°C° 0 mm 1 mps 768 mmHg 86%
03:00 +3°C° 0 mm 1 mps 767 mmHg 86%
04:00 +3°C° 0 mm 1 mps 767 mmHg 87%
05:00 +3°C° 0 mm 1 mps 767 mmHg 87%
06:00 +3°C° 0 mm 1 mps 766 mmHg 87%
07:00 +2°C° 0 mm 1 mps 766 mmHg 87%
08:00 +4°C° 0 mm 1 mps 766 mmHg 82%
09:00 +6°C° 0 mm 1 mps 766 mmHg 76%
10:00 +7°C° 0 mm 2 mps 766 mmHg 70%
11:00 +8°C° 0 mm 2 mps 765 mmHg 66%
12:00 +10°C° 0 mm 2 mps 764 mmHg 63%
13:00 +12°C° 0 mm 2 mps 764 mmHg 59%
14:00 +12°C° 0 mm 2 mps 763 mmHg 60%
15:00 +12°C° 0 mm 2 mps 762 mmHg 61%
16:00 +12°C° 0 mm 2 mps 762 mmHg 62%
17:00 +10°C° 0 mm 2 mps 761 mmHg 67%
18:00 +8°C° 0 mm 2 mps 761 mmHg 72%
19:00 +6°C° 0 mm 2 mps 760 mmHg 77%
20:00 +6°C° 0 mm 2 mps 760 mmHg 80%
21:00 +4°C° 0 mm 3 mps 760 mmHg 83%
22:00 +4°C° 0 mm 3 mps 759 mmHg 86%
23:00 +4°C° 0 mm 3 mps 759 mmHg 87%

4 March, Thursday

Time Temperature Precipitation Wind Pressure Humidity
00:00 +3°C° 0 mm 3 mps 758 mmHg 89%
01:00 +3°C° 0 mm 3 mps 758 mmHg 90%
02:00 +3°C° 0 mm 3 mps 757 mmHg 92%
03:00 +3°C° 0 mm 3 mps 757 mmHg 93%
04:00 +3°C° 0 mm 3 mps 757 mmHg 94%
05:00 +2°C° 0 mm 3 mps 756 mmHg 95%
06:00 +2°C° 0 mm 3 mps 756 mmHg 96%
07:00 +1°C° 0 mm 3 mps 756 mmHg 96%
08:00 +2°C° 0 mm 3 mps 755 mmHg 90%
09:00 +4°C° 0 mm 3 mps 755 mmHg 84%
10:00 +5°C° 0 mm 3 mps 755 mmHg 78%
11:00 +5°C° 0 mm 3 mps 755 mmHg 73%
12:00 +7°C° 0 mm 3 mps 755 mmHg 69%
13:00 +8°C° 0 mm 3 mps 754 mmHg 64%
14:00 +7°C° 0 mm 3 mps 754 mmHg 65%
15:00 +7°C° 0 mm 3 mps 754 mmHg 66%
16:00 +7°C° 0 mm 3 mps 753 mmHg 67%
17:00 +5°C° 0 mm 3 mps 753 mmHg 72%
18:00 +5°C° 0 mm 2 mps 753 mmHg 77%
19:00 +4°C° 0 mm 2 mps 753 mmHg 82%
20:00 +4°C° 0 mm 2 mps 753 mmHg 82%
21:00 +4°C° 0 mm 2 mps 753 mmHg 83%
22:00 +4°C° 0 mm 2 mps 753 mmHg 84%
23:00 +2°C° 0 mm 3 mps 753 mmHg 87%

5 March, Friday

Time Temperature Precipitation Wind Pressure Humidity
00:00 0°C° 0 mm 4 mps 753 mmHg 90%
01:00 0°C° 0 mm 5 mps 753 mmHg 93%
02:00 -1°C° 0.1 mm 5 mps 753 mmHg 91%
03:00 -2°C° 0.1 mm 5 mps 754 mmHg 89%
04:00 -2°C° 0.1 mm 5 mps 754 mmHg 86%
05:00 -2°C° 0 mm 5 mps 754 mmHg 85%
06:00 -4°C° 0 mm 5 mps 755 mmHg 83%
07:00 -3°C° 0 mm 4 mps 756 mmHg 82%
08:00 -2°C° 0 mm 5 mps 756 mmHg 73%
09:00 -1°C° 0 mm 5 mps 757 mmHg 65%
10:00 -1°C° 0 mm 6 mps 757 mmHg 57%
11:00 +1°C° 0 mm 6 mps 758 mmHg 54%
12:00 +1°C° 0 mm 6 mps 758 mmHg 51%
13:00 +2°C° 0 mm 5 mps 759 mmHg 48%
14:00 +1°C° 0.1 mm 6 mps 759 mmHg 49%
15:00 +1°C° 0.1 mm 6 mps 759 mmHg 50%
16:00 +1°C° 0.1 mm 6 mps 760 mmHg 52%
17:00 -1°C° 0 mm 5 mps 760 mmHg 57%
18:00 -2°C° 0 mm 4 mps 761 mmHg 61%
19:00 -2°C° 0 mm 3 mps 762 mmHg 66%
20:00 -2°C° 0 mm 3 mps 762 mmHg 66%
21:00 -2°C° 0 mm 3 mps 763 mmHg 66%
22:00 -3°C° 0 mm 2 mps 764 mmHg 65%
23:00 -4°C° 0 mm 3 mps 764 mmHg 68%

6 March, Saturday

Time Temperature Precipitation Wind Pressure Humidity
00:00 -4°C° 0 mm 3 mps 765 mmHg 70%
01:00 -4°C° 0 mm 3 mps 765 mmHg 72%
02:00 -4°C° 0 mm 3 mps 765 mmHg 72%
03:00 -3°C° 0 mm 2 mps 766 mmHg 71%
04:00 -3°C° 0 mm 2 mps 766 mmHg 70%
05:00 -3°C° 0 mm 2 mps 766 mmHg 69%
06:00 -3°C° 0 mm 2 mps 767 mmHg 69%
07:00 -1°C° 0 mm 1 mps 767 mmHg 68%
08:00 0°C° 0 mm 1 mps 767 mmHg 60%
09:00 -1°C° 0 mm 2 mps 768 mmHg 52%
10:00 +1°C° 0 mm 2 mps 768 mmHg 44%
11:00 +2°C° 0 mm 2 mps 768 mmHg 41%
12:00 +3°C° 0 mm 2 mps 768 mmHg 38%
13:00 +2°C° 0 mm 3 mps 768 mmHg 35%
14:00 +2°C° 0 mm 3 mps 768 mmHg 36%
15:00 +2°C° 0 mm 3 mps 768 mmHg 37%
16:00 +2°C° 0 mm 3 mps 768 mmHg 39%
17:00 +2°C° 0 mm 2 mps 768 mmHg 44%
18:00 +1°C° 0 mm 2 mps 768 mmHg 50%
19:00 0°C° 0 mm 1 mps 768 mmHg 56%
20:00 -2°C° 0 mm 2 mps 768 mmHg 58%
21:00 -2°C° 0 mm 2 mps 768 mmHg 61%
22:00 -2°C° 0 mm 2 mps 768 mmHg 64%
23:00 -2°C° 0 mm 3 mps 768 mmHg 65%
Show more

We Need Your Consent

Meteoprog and our Service Providers may store and access personal data such as cookies, device identifiers or other similar technologies on your device and process such data to personalise content and ads, as well as provide social media features and to analyse the traffic.

  • Store and/or access information on your device

    Cookies, device identifiers or other information can be stored or accessed on your device for the purposes indicated above.

  • Personalised ads and content, ad and content measurement, audience insights, and products development

    Ads and content can be personalised based on a profile. More data can be added to better personalise ads and content. Ad and content performance can be measured. Insights about the audience who saw the ads and content can be derived. Such data can be used to develop or improve user’s experience, systems and software.

By clicking ‘I Agree’ you will allow the use of indicated cookies, device identifiers, web beacons or other similar technologies. Your settings can be changed in the browser on your device.

For certain purposes, legitimate interests may be relied on, rather than consent. You can read more about this in our Privacy and Cookie Policy.